This is the latest recevied weather packets stored in our database for station/object N5COP-13. If no packets are shown the sender has not sent any weather packets the latest 10 day(s).
| Time | Temp. | Humidity | Pressure | Rain* | Wind** | Luminosity | Snow |
|---|---|---|---|---|---|---|---|
| 1778167718 | 10.56° C | 70% | 1021.5 hPa | 0 mm | - | 600 W/m² | - |
| 1778167415 | 10.56° C | 71% | 1021.3 hPa | 0 mm | - | 583 W/m² | - |
| 1778167111 | 10° C | 74% | 1021.2 hPa | 0 mm | - | 567 W/m² | - |
| 1778166807 | 10° C | 76% | 1021.6 hPa | 0 mm | - | 550 W/m² | - |
| 1778166505 | 9.44° C | 78% | 1021.8 hPa | 0 mm | - | 530 W/m² | - |
| 1778166201 | 8.89° C | 80% | 1021.5 hPa | 0 mm | - | 517 W/m² | - |
| 1778165897 | 8.89° C | 83% | 1021.6 hPa | 0 mm | - | 494 W/m² | - |
| 1778165594 | 8.89° C | 84% | 1021.5 hPa | 0 mm | - | 476 W/m² | - |
| 1778165291 | 8.33° C | 85% | 1021.7 hPa | 0 mm | - | 462 W/m² | - |
| 1778164988 | 7.78° C | 87% | 1021.7 hPa | 0 mm | - | 447 W/m² | - |
| 1778164684 | 7.78° C | 88% | 1021.8 hPa | 0 mm | - | 431 W/m² | - |
| 1778164382 | 7.22° C | 89% | 1021.8 hPa | 0 mm | - | 414 W/m² | - |
| 1778164078 | 7.22° C | 90% | 1022 hPa | 0 mm | - | 415 W/m² | - |
| 1778163774 | 6.67° C | 91% | 1022.1 hPa | 0 mm | - | 233 W/m² | - |
| 1778163471 | 6.67° C | 91% | 1022 hPa | 0 mm | - | 350 W/m² | - |
| 1778163168 | 6.67° C | 92% | 1022.1 hPa | 0 mm | - | 398 W/m² | - |
| 1778162864 | 6.11° C | 92% | 1022 hPa | 0 mm | - | 416 W/m² | - |
| 1778162562 | 6.11° C | 92% | 1022.2 hPa | 0 mm | - | 203 W/m² | - |
| 1778162259 | 6.11° C | 93% | 1022.5 hPa | 0 mm | - | 212 W/m² | - |
| 1778161956 | 5.56° C | 93% | 1022.5 hPa | 0 mm | - | 237 W/m² | - |
| 1778161652 | 5.56° C | 93% | 1022.1 hPa | 0 mm | - | 338 W/m² | - |
| 1778161349 | 5.56° C | 93% | 1022.1 hPa | 0 mm | - | 278 W/m² | - |
| 1778161045 | 5.56° C | 93% | 1022.1 hPa | 0 mm | - | 148 W/m² | - |
| 1778160742 | 5° C | 93% | 1022.2 hPa | 0 mm | - | 155 W/m² | - |
| 1778160439 | 5° C | 93% | 1022.1 hPa | 0 mm | - | 119 W/m² | - |
* Rain latest hour (hover to see other rain measurements)
** Current wind speed in m/s (hover to see current wind gust speed)